| time (UTC) | temp F | wind direction | speed MPH | gust MPH | rain 1hr in | rain 24hr in | rain mn in | humidity % | barometer mb |
| 20260905061529 | 56 | 228 | 0.0 | 0.0 | 0.00 | 0.00 | 0.00 | 1 | 1014.8 |
| 20260905061016 | 56 | 228 | 0.0 | 0.0 | 0.00 | 0.00 | 0.00 | 1 | 1014.7 |
| 20260905060514 | 56 | 227 | 0.0 | 0.0 | 0.00 | 0.00 | 0.00 | 1 | 1014.7 |
| 20260905060013 | 56 | 227 | 0.0 | 0.0 | 0.00 | 0.00 | 0.00 | 1 | 1014.7 |
| 20260905055517 | 56 | 228 | 0.0 | 0.0 | 0.00 | 0.00 | 0.00 | 1 | 1014.8 |
| 20260905055010 | 56 | 228 | 0.0 | 0.0 | 0.00 | 0.00 | 0.00 | 1 | 1014.7 |
| 20260905054509 | 56 | 228 | 0.0 | 0.0 | 0.00 | 0.00 | 0.00 | 1 | 1014.7 |
| 20260905054009 | 56 | 227 | 0.0 | 0.0 | 0.00 | 0.00 | 0.00 | 1 | 1014.8 |
| 20260905053513 | 56 | 228 | 0.0 | 0.0 | 0.00 | 0.00 | 0.00 | 1 | 1014.7 |
| 20260905053009 | 56 | 229 | 0.0 | 0.0 | 0.00 | 0.00 | 0.00 | 1 | 1014.8 |
| 20260905052509 | 55 | 228 | 0.0 | 0.0 | 0.00 | 0.00 | 0.00 | 1 | 1014.7 |
| 20260905052052 | 55 | 228 | 0.0 | 0.0 | 0.00 | 0.00 | 0.00 | 1 | 1014.7 |
| 20260905051550 | 55 | 228 | 0.0 | 0.0 | 0.00 | 0.00 | 0.00 | 1 | 1014.8 |
| 20260905051048 | 55 | 228 | 0.0 | 0.0 | 0.00 | 0.00 | 0.00 | 1 | 1014.8 |
| 20260905050546 | 55 | 228 | 0.0 | 0.0 | 0.00 | 0.00 | 0.00 | 1 | 1014.7 |
| 20260905050045 | 55 | 228 | 0.0 | 0.0 | 0.00 | 0.00 | 0.00 | 1 | 1014.7 |
| 20260905045543 | 56 | 228 | 0.0 | 0.0 | 0.00 | 0.00 | 0.00 | 1 | 1014.7 |
| 20260905045025 | 56 | 228 | 0.0 | 0.0 | 0.00 | 0.00 | 0.00 | 1 | 1014.8 |
| 20260905044528 | 56 | 228 | 0.0 | 0.0 | 0.00 | 0.00 | 0.00 | 1 | 1014.7 |
| 20260905044021 | 56 | 228 | 0.0 | 0.0 | 0.00 | 0.00 | 0.00 | 1 | 1014.7 |
| 20260905043520 | 56 | 228 | 0.0 | 0.0 | 0.00 | 0.00 | 0.00 | 1 | 1014.7 |
| 20260905043019 | 56 | 228 | 0.0 | 0.0 | 0.00 | 0.00 | 0.00 | 1 | 1014.7 |
| 20260905042519 | 56 | 228 | 0.0 | 0.0 | 0.00 | 0.00 | 0.00 | 1 | 1014.7 |
| 20260905042059 | 56 | 228 | 0.0 | 0.0 | 0.00 | 0.00 | 0.00 | 1 | 1014.6 |
| 20260905041557 | 56 | 227 | 0.0 | 0.0 | 0.00 | 0.00 | 0.00 | 1 | 1014.6 |
| 20260905041055 | 56 | 228 | 0.0 | 0.0 | 0.00 | 0.00 | 0.00 | 1 | 1014.6 |
| 20260905040555 | 56 | 228 | 0.0 | 0.0 | 0.00 | 0.00 | 0.00 | 1 | 1014.7 |
| 20260905040053 | 56 | 228 | 0.0 | 0.0 | 0.00 | 0.00 | 0.00 | 1 | 1014.7 |
| 20260905035552 | 56 | 228 | 0.0 | 0.0 | 0.00 | 0.00 | 0.00 | 1 | 1014.7 |
| 20260905035033 | 56 | 227 | 0.0 | 0.0 | 0.00 | 0.00 | 0.00 | 1 | 1014.5 |
| 20260905034531 | 56 | 228 | 0.0 | 0.0 | 0.00 | 0.00 | 0.00 | 1 | 1014.6 |
| 20260905034030 | 56 | 228 | 0.0 | 0.0 | 0.00 | 0.00 | 0.00 | 1 | 1014.6 |
| 20260905033529 | 56 | 228 | 0.0 | 1.0 | 0.00 | 0.00 | 0.00 | 1 | 1014.5 |
| 20260905033027 | 56 | 228 | 0.0 | 1.0 | 0.00 | 0.00 | 0.00 | 1 | 1014.4 |
| 20260905032527 | 56 | 228 | 0.0 | 1.0 | 0.00 | 0.00 | 0.00 | 1 | 1014.3 |
| 20260905032010 | 56 | 255 | 0.0 | 1.0 | 0.00 | 0.00 | 0.00 | 1 | 1014.3 |
| 20260905031512 | 56 | 294 | 0.0 | 0.0 | 0.00 | 0.00 | 0.00 | 1 | 1014.3 |
| 20260905031004 | 57 | 293 | 0.0 | 0.0 | 0.00 | 0.00 | 0.00 | 1 | 1014.2 |
| 20260905030503 | 57 | 294 | 0.0 | 0.0 | 0.00 | 0.00 | 0.00 | 1 | 1014.3 |
| 20260905030007 | 57 | 294 | 0.0 | 0.0 | 0.00 | 0.00 | 0.00 | 1 | 1014.2 |
| 20260905025500 | 58 | 294 | 0.0 | 1.0 | 0.00 | 0.00 | 0.00 | 1 | 1014.2 |
| 20260905025044 | 58 | 293 | 0.0 | 1.0 | 0.00 | 0.00 | 0.00 | 1 | 1014.2 |
| 20260905024541 | 59 | 26 | 0.0 | 1.0 | 0.00 | 0.00 | 0.00 | 1 | 1014.2 |
| 20260905024038 | 60 | 26 | 0.0 | 1.0 | 0.00 | 0.00 | 0.00 | 1 | 1014.2 |
| 20260905023538 | 60 | 26 | 0.0 | 1.0 | 0.00 | 0.00 | 0.00 | 1 | 1014.2 |
| 20260905023038 | 61 | 32 | 0.0 | 2.0 | 0.00 | 0.00 | 0.00 | 1 | 1014.1 |
| 20260905022538 | 61 | 297 | 0.0 | 2.0 | 0.00 | 0.00 | 0.00 | 1 | 1014.1 |
| 20260905022015 | 62 | 326 | 0.0 | 1.0 | 0.00 | 0.00 | 0.00 | 1 | 1014.2 |
| 20260905021527 | 62 | 350 | 0.0 | 1.0 | 0.00 | 0.00 | 0.00 | 1 | 1014.2 |
| 20260905021014 | 62 | 25 | 0.0 | 2.0 | 0.00 | 0.00 | 0.00 | 1 | 1014.3 |
| 20260905020512 | 62 | 250 | 0.0 | 0.0 | 0.00 | 0.00 | 0.00 | 1 | 1014.3 |
| 20260905020010 | 62 | 339 | 0.0 | 0.0 | 0.00 | 0.00 | 0.00 | 1 | 1014.2 |
| 20260905015508 | 62 | 327 | 0.0 | 1.0 | 0.00 | 0.00 | 0.00 | 1 | 1014.2 |
| 20260905015050 | 62 | 326 | 0.0 | 1.0 | 0.00 | 0.00 | 0.00 | 1 | 1014.1 |
| 20260905014548 | 62 | 6 | 0.0 | 2.0 | 0.00 | 0.00 | 0.00 | 1 | 1014.0 |
| 20260905014047 | 62 | 65 | 0.0 | 5.0 | 0.00 | 0.00 | 0.00 | 1 | 1014.0 |
| 20260905013545 | 62 | 65 | 0.0 | 5.0 | 0.00 | 0.00 | 0.00 | 1 | 1013.9 |
| 20260905013106 | 62 | 70 | 0.0 | 1.0 | 0.00 | 0.00 | 0.00 | 1 | 1013.8 |
| 20260905012543 | 62 | 337 | 0.0 | 4.0 | 0.00 | 0.00 | 0.00 | 1 | 1013.8 |
| 20260905012023 | 62 | 72 | 0.0 | 4.0 | 0.00 | 0.00 | 0.00 | 1 | 1013.7 |
| 20260905011523 | 63 | 297 | 0.0 | 3.0 | 0.00 | 0.00 | 0.00 | 1 | 1013.7 |
| 20260905011022 | 63 | 122 | 0.0 | 2.0 | 0.00 | 0.00 | 0.00 | 1 | 1013.7 |
| 20260905010519 | 63 | 44 | 0.0 | 4.0 | 0.00 | 0.00 | 0.00 | 1 | 1013.7 |
| 20260905010017 | 63 | 297 | 0.0 | 4.0 | 0.00 | 0.00 | 0.00 | 1 | 1013.6 |
| 20260905005516 | 64 | 41 | 0.0 | 3.0 | 0.00 | 0.00 | 0.00 | 1 | 1013.6 |
| 20260905005115 | 64 | 74 | 0.0 | 2.0 | 0.00 | 0.00 | 0.00 | 4 | 1013.6 |
| 20260905004635 | 64 | 41 | 0.0 | 3.0 | 0.00 | 0.00 | 0.00 | 7 | 1013.5 |
| 20260905004054 | 64 | 43 | 0.0 | 4.0 | 0.00 | 0.00 | 0.00 | 11 | 1013.4 |
| 20260905003553 | 63 | 79 | 1.0 | 4.0 | 0.00 | 0.00 | 0.00 | 19 | 1013.4 |
| 20260905003052 | 64 | 318 | 0.0 | 4.0 | 0.00 | 0.00 | 0.00 | 12 | 1013.4 |
| 20260905002550 | 64 | 36 | 0.0 | 3.0 | 0.00 | 0.00 | 0.00 | 17 | 1013.4 |
| 20260905002052 | 64 | 74 | 0.0 | 2.0 | 0.00 | 0.00 | 0.00 | 22 | 1013.2 |
| 20260905001530 | 64 | 253 | 0.0 | 3.0 | 0.00 | 0.00 | 0.00 | 25 | 1013.2 |
| 20260905001028 | 64 | 200 | 0.0 | 5.0 | 0.00 | 0.00 | 0.00 | 21 | 1013.2 |
| 20260905000630 | 64 | 61 | 0.0 | 9.0 | 0.00 | 0.00 | 0.00 | 22 | 1013.2 |
| 20260905000026 | 64 | 297 | 0.0 | 3.0 | 0.00 | 0.00 | 0.00 | 26 | 1013.1 |
| 20260904235524 | 64 | 23 | 0.0 | 2.0 | 0.00 | 0.00 | 0.00 | 16 | 1013.1 |
| 20260904235023 | 64 | 302 | 0.0 | 3.0 | 0.00 | 0.00 | 0.00 | 1 | 1013.2 |
| 20260904234504 | 65 | 297 | 0.0 | 3.0 | 0.00 | 0.00 | 0.00 | 9 | 1013.2 |
| 20260904234004 | 64 | 33 | 0.0 | 4.0 | 0.00 | 0.00 | 0.00 | 16 | 1013.2 |
| 20260904233502 | 64 | 313 | 0.0 | 4.0 | 0.00 | 0.00 | 0.00 | 21 | 1013.3 |
| 20260904233100 | 64 | 12 | 0.0 | 6.0 | 0.00 | 0.00 | 0.00 | 20 | 1013.3 |
| 20260904232559 | 64 | 238 | 0.0 | 7.0 | 0.00 | 0.00 | 0.00 | 24 | 1013.3 |
| 20260904232056 | 64 | 91 | 1.0 | 7.0 | 0.00 | 0.00 | 0.00 | 21 | 1013.3 |
| 20260904231537 | 65 | 70 | 0.0 | 2.0 | 0.00 | 0.00 | 0.00 | 8 | 1013.3 |
| 20260904231036 | 65 | 320 | 0.0 | 4.0 | 0.00 | 0.00 | 0.00 | 7 | 1013.2 |
| 20260904230534 | 65 | 25 | 0.0 | 4.0 | 0.00 | 0.00 | 0.00 | 1 | 1013.4 |
| 20260904230033 | 65 | 307 | 0.0 | 1.0 | 0.00 | 0.00 | 0.00 | 2 | 1013.5 |
| 20260904225532 | 66 | 295 | 0.0 | 2.0 | 0.00 | 0.00 | 0.00 | 7 | 1013.5 |
| 20260904225033 | 67 | 321 | 0.0 | 3.0 | 0.00 | 0.00 | 0.00 | 16 | 1013.4 |
| 20260904224510 | 67 | 12 | 0.0 | 6.0 | 0.00 | 0.00 | 0.00 | 19 | 1013.3 |
| 20260904224010 | 67 | 59 | 1.0 | 6.0 | 0.00 | 0.00 | 0.00 | 19 | 1013.2 |
| 20260904223508 | 67 | 36 | 2.0 | 5.0 | 0.00 | 0.00 | 0.00 | 20 | 1013.2 |
| 20260904223006 | 67 | 291 | 0.0 | 5.0 | 0.00 | 0.00 | 0.00 | 16 | 1013.1 |
| 20260904222506 | 67 | 304 | 2.0 | 5.0 | 0.00 | 0.00 | 0.00 | 20 | 1013.0 |
| 20260904222007 | 68 | 90 | 0.0 | 2.0 | 0.00 | 0.00 | 0.00 | 19 | 1013.0 |
| 20260904221553 | 68 | 308 | 0.0 | 4.0 | 0.00 | 0.00 | 0.00 | 17 | 1013.0 |
| 20260904221047 | 68 | 275 | 0.0 | 4.0 | 0.00 | 0.00 | 0.00 | 16 | 1013.0 |
| 20260904220547 | 68 | 287 | 0.0 | 4.0 | 0.00 | 0.00 | 0.00 | 11 | 1013.0 |
| 20260904220048 | 68 | 305 | 0.0 | 4.0 | 0.00 | 0.00 | 0.00 | 9 | 1012.9 |
| 20260904215546 | 68 | 236 | 0.0 | 2.0 | 0.00 | 0.00 | 0.00 | 1 | 1013.0 |
| 20260904215046 | 67 | 298 | 0.0 | 2.0 | 0.00 | 0.00 | 0.00 | 1 | 1012.9 |
| 20260904214530 | 66 | 72 | 0.0 | 2.0 | 0.00 | 0.00 | 0.00 | 1 | 1013.0 |
| 20260904214029 | 66 | 274 | 0.0 | 3.0 | 0.00 | 0.00 | 0.00 | 1 | 1013.0 |
| 20260904213532 | 66 | 232 | 0.0 | 3.0 | 0.00 | 0.00 | 0.00 | 1 | 1013.0 |
| 20260904213037 | 66 | 236 | 0.0 | 4.0 | 0.00 | 0.00 | 0.00 | 20 | 1013.0 |
| 20260904212526 | 67 | 82 | 0.0 | 4.0 | 0.00 | 0.00 | 0.00 | 25 | 1012.9 |
| 20260904212024 | 68 | 47 | 0.0 | 2.0 | 0.00 | 0.00 | 0.00 | 23 | 1012.9 |
| 20260904211504 | 68 | 271 | 0.0 | 4.0 | 0.00 | 0.00 | 0.00 | 26 | 1012.9 |
| 20260904211003 | 69 | 231 | 2.0 | 4.0 | 0.00 | 0.00 | 0.00 | 29 | 1012.9 |
| 20260904210502 | 69 | 95 | 0.0 | 2.0 | 0.00 | 0.00 | 0.00 | 35 | 1012.9 |
| 20260904210101 | 68 | 249 | 0.0 | 1.0 | 0.00 | 0.00 | 0.00 | 37 | 1012.9 |
| 20260904205559 | 69 | 94 | 0.0 | 2.0 | 0.00 | 0.00 | 0.00 | 35 | 1012.8 |
| 20260904205058 | 70 | 177 | 0.0 | 2.0 | 0.00 | 0.00 | 0.00 | 34 | 1012.7 |
| 20260904204539 | 70 | 114 | 0.0 | 1.0 | 0.00 | 0.00 | 0.00 | 32 | 1012.7 |
| 20260904204039 | 69 | 341 | 0.0 | 3.0 | 0.00 | 0.00 | 0.00 | 31 | 1012.7 |
| 20260904203536 | 68 | 101 | 0.0 | 5.0 | 0.00 | 0.00 | 0.00 | 32 | 1012.8 |
| 20260904203036 | 69 | 217 | 0.0 | 4.0 | 0.00 | 0.00 | 0.00 | 30 | 1012.8 |
| 20260904202532 | 69 | 222 | 1.0 | 5.0 | 0.00 | 0.00 | 0.00 | 30 | 1012.8 |
| 20260904202034 | 69 | 231 | 0.0 | 5.0 | 0.00 | 0.00 | 0.00 | 29 | 1012.8 |
| 20260904201513 | 69 | 222 | 0.0 | 3.0 | 0.00 | 0.00 | 0.00 | 25 | 1012.7 |
| 20260904201011 | 69 | 127 | 0.0 | 5.0 | 0.00 | 0.00 | 0.00 | 26 | 1012.7 |
| 20260904200510 | 69 | 245 | 0.0 | 4.0 | 0.00 | 0.00 | 0.00 | 24 | 1012.6 |
| 20260904200009 | 69 | 214 | 1.0 | 4.0 | 0.00 | 0.00 | 0.00 | 22 | 1012.7 |
| 20260904195510 | 68 | 93 | 0.0 | 4.0 | 0.00 | 0.00 | 0.00 | 16 | 1012.7 |
| 20260904195007 | 68 | 84 | 0.0 | 6.0 | 0.00 | 0.00 | 0.00 | 16 | 1012.7 |
| 20260904194603 | 68 | 200 | 2.0 | 6.0 | 0.00 | 0.00 | 0.00 | 14 | 1012.8 |
| 20260904194045 | 68 | 58 | 0.0 | 0.0 | 0.00 | 0.00 | 0.00 | 12 | 1012.8 |
| 20260904193545 | 67 | 96 | 0.0 | 3.0 | 0.00 | 0.00 | 0.00 | 5 | 1012.8 |
| 20260904193043 | 68 | 239 | 0.0 | 3.0 | 0.00 | 0.00 | 0.00 | 1 | 1012.7 |
| 20260904192541 | 67 | 248 | 1.0 | 3.0 | 0.00 | 0.00 | 0.00 | 14 | 1012.7 |
| 20260904192043 | 68 | 218 | 0.0 | 3.0 | 0.00 | 0.00 | 0.00 | 9 | 1012.7 |
| 20260904191521 | 68 | 91 | 0.0 | 3.0 | 0.00 | 0.00 | 0.00 | 8 | 1012.6 |
| 20260904191020 | 67 | 245 | 0.0 | 0.0 | 0.00 | 0.00 | 0.00 | 13 | 1012.6 |
| 20260904190518 | 67 | 170 | 0.0 | 3.0 | 0.00 | 0.00 | 0.00 | 15 | 1012.8 |
| 20260904190016 | 66 | 103 | 0.0 | 3.0 | 0.00 | 0.00 | 0.00 | 17 | 1012.8 |
| 20260904185514 | 67 | 113 | 0.0 | 0.0 | 0.00 | 0.00 | 0.00 | 12 | 1012.8 |
| 20260904185017 | 66 | 63 | 0.0 | 1.0 | 0.00 | 0.00 | 0.00 | 11 | 1012.8 |
| 20260904184617 | 66 | 354 | 0.0 | 2.0 | 0.00 | 0.00 | 0.00 | 12 | 1012.7 |
| 20260904184053 | 66 | 113 | 0.0 | 2.0 | 0.00 | 0.00 | 0.00 | 8 | 1012.7 |
| 20260904183552 | 65 | 68 | 0.0 | 2.0 | 0.00 | 0.00 | 0.00 | 1 | 1012.8 |
| 20260904183050 | 65 | 86 | 0.0 | 2.0 | 0.00 | 0.00 | 0.00 | 5 | 1012.8 |
| 20260904182548 | 65 | 117 | 0.0 | 2.0 | 0.00 | 0.00 | 0.00 | 1 | 1012.8 |
| 20260904182047 | 65 | 85 | 0.0 | 2.0 | 0.00 | 0.00 | 0.00 | 1 | 1012.7 |
| 20260904181600 | 65 | 56 | 0.0 | 2.0 | 0.00 | 0.00 | 0.00 | 1 | 1012.7 |
| 20260904181027 | 65 | 20 | 0.0 | 2.0 | 0.00 | 0.00 | 0.00 | 1 | 1012.6 |
| 20260904180531 | 64 | 51 | 0.0 | 2.0 | 0.00 | 0.00 | 0.00 | 1 | 1012.5 |
| 20260904180041 | 63 | 41 | 0.0 | 1.0 | 0.00 | 0.00 | 0.00 | 1 | 1012.5 |
| 20260904175522 | 62 | 86 | 0.0 | 1.0 | 0.00 | 0.00 | 0.00 | 1 | 1012.5 |
| 20260904175022 | 61 | 46 | 0.0 | 1.0 | 0.00 | 0.00 | 0.00 | 1 | 1012.6 |
| 20260904174520 | 60 | 55 | 0.0 | 1.0 | 0.00 | 0.00 | 0.00 | 1 | 1012.7 |
| 20260904174003 | 59 | 47 | 0.0 | 1.0 | 0.00 | 0.00 | 0.00 | 1 | 1012.8 |
| 20260904173559 | 59 | 101 | 0.0 | 1.0 | 0.00 | 0.00 | 0.00 | 1 | 1012.7 |
| 20260904173058 | 58 | 134 | 0.0 | 1.0 | 0.00 | 0.00 | 0.00 | 1 | 1012.7 |
| 20260904172556 | 57 | 176 | 0.0 | 0.0 | 0.00 | 0.00 | 0.00 | 1 | 1012.7 |
| 20260904172056 | 57 | 117 | 0.0 | 0.0 | 0.00 | 0.00 | 0.00 | 1 | 1012.7 |
| 20260904171617 | 57 | 117 | 0.0 | 1.0 | 0.00 | 0.00 | 0.00 | 1 | 1012.6 |
| 20260904171037 | 57 | 117 | 0.0 | 1.0 | 0.00 | 0.00 | 0.00 | 1 | 1012.6 |
| 20260904170535 | 57 | 255 | 0.0 | 1.0 | 0.00 | 0.00 | 0.00 | 1 | 1012.4 |
| 20260904170033 | 57 | 68 | 0.0 | 0.0 | 0.00 | 0.00 | 0.00 | 1 | 1012.4 |
| 20260904165532 | 56 | 117 | 0.0 | 1.0 | 0.00 | 0.00 | 0.00 | 1 | 1012.3 |
| 20260904165030 | 56 | 117 | 0.0 | 1.0 | 0.00 | 0.00 | 0.00 | 1 | 1012.3 |
| 20260904164528 | 56 | 59 | 0.0 | 1.0 | 0.00 | 0.00 | 0.00 | 1 | 1012.4 |
| 20260904164009 | 56 | 63 | 0.0 | 1.0 | 0.00 | 0.00 | 0.00 | 1 | 1012.4 |
| 20260904163509 | 56 | 72 | 0.0 | 1.0 | 0.00 | 0.00 | 0.00 | 1 | 1012.4 |
| 20260904163008 | 57 | 70 | 0.0 | 1.0 | 0.00 | 0.00 | 0.00 | 1 | 1012.4 |
| 20260904162506 | 57 | 71 | 0.0 | 1.0 | 0.00 | 0.00 | 0.00 | 1 | 1012.4 |
| 20260904162004 | 56 | 68 | 0.0 | 1.0 | 0.00 | 0.00 | 0.00 | 1 | 1012.4 |
| 20260904161503 | 56 | 62 | 0.0 | 1.0 | 0.00 | 0.00 | 0.00 | 1 | 1012.3 |
| 20260904161044 | 55 | 61 | 0.0 | 1.0 | 0.00 | 0.00 | 0.00 | 1 | 1012.3 |
| 20260904160543 | 55 | 43 | 0.0 | 1.0 | 0.00 | 0.00 | 0.00 | 1 | 1012.2 |
| 20260904160042 | 55 | 43 | 0.0 | 1.0 | 0.00 | 0.00 | 0.00 | 1 | 1012.2 |
| 20260904155542 | 54 | 42 | 0.0 | 1.0 | 0.00 | 0.00 | 0.00 | 1 | 1012.2 |
| 20260904155038 | 54 | 37 | 0.0 | 1.0 | 0.00 | 0.00 | 0.00 | 1 | 1012.2 |
| 20260904154543 | 54 | 35 | 0.0 | 1.0 | 0.00 | 0.00 | 0.00 | 1 | 1012.2 |
| 20260904154022 | 54 | 47 | 0.0 | 1.0 | 0.00 | 0.00 | 0.00 | 1 | 1012.2 |
| 20260904153517 | 53 | 47 | 0.0 | 1.0 | 0.00 | 0.00 | 0.00 | 1 | 1012.2 |
| 20260904153015 | 53 | 31 | 0.0 | 1.0 | 0.00 | 0.00 | 0.00 | 1 | 1012.1 |
| 20260904152514 | 53 | 32 | 0.0 | 1.0 | 0.00 | 0.00 | 0.00 | 1 | 1012.1 |
| 20260904152012 | 53 | 30 | 0.0 | 1.0 | 0.00 | 0.00 | 0.00 | 1 | 1012.1 |
| 20260904151512 | 53 | 30 | 0.0 | 0.0 | 0.00 | 0.00 | 0.00 | 1 | 1012.1 |
| 20260904151052 | 53 | 30 | 0.0 | 0.0 | 0.00 | 0.00 | 0.00 | 1 | 1012.2 |
| 20260904150550 | 52 | 30 | 0.0 | 0.0 | 0.00 | 0.00 | 0.00 | 1 | 1012.0 |
| 20260904150049 | 0 | 0.0 | 0.0 | 0.00 | 0.00 | 0.00 | 1012.0 | ||
| 20260904145548 | 0 | 0.0 | 0.0 | 0.00 | 0.00 | 0.00 | 1012.1 | ||
| 20260904145049 | 0 | 0.0 | 0.0 | 0.00 | 0.00 | 0.00 | 1012.0 | ||
| 20260904144546 | 0 | 0.0 | 0.0 | 0.00 | 0.00 | 0.00 | 1011.9 | ||
| 20260904144027 | 0 | 0.0 | 0.0 | 0.00 | 0.00 | 0.00 | 1011.8 | ||
| 20260904143524 | 0 | 0.0 | 0.0 | 0.00 | 0.00 | 0.00 | 1011.6 | ||
| 20260904143022 | 0 | 0.0 | 0.0 | 0.00 | 0.00 | 0.00 | 1011.6 | ||
| 20260904142521 | 0 | 0.0 | 0.0 | 0.00 | 0.00 | 0.00 | 1011.6 | ||
| 20260904142020 | 0 | 0.0 | 0.0 | 0.00 | 0.00 | 0.00 | 1011.6 | ||
| 20260904141519 | 0 | 0.0 | 0.0 | 0.00 | 0.00 | 0.00 | 1011.4 | ||
| 20260904141059 | 0 | 0.0 | 0.0 | 0.00 | 0.00 | 0.00 | 1011.3 | ||
| 20260904140558 | 0 | 0.0 | 0.0 | 0.00 | 0.00 | 0.00 | 1011.3 | ||
| 20260904140057 | 0 | 0.0 | 0.0 | 0.00 | 0.00 | 0.00 | 1011.3 | ||
| 20260904135556 | 0 | 0.0 | 0.0 | 0.00 | 0.00 | 0.00 | 1011.3 | ||
| 20260904135055 | 0 | 0.0 | 0.0 | 0.00 | 0.00 | 0.00 | 1011.2 | ||
| 20260904134553 | 0 | 0.0 | 0.0 | 0.00 | 0.00 | 0.00 | 1011.1 | ||
| 20260904134037 | 0 | 0.0 | 0.0 | 0.00 | 0.00 | 0.00 | 1011.1 | ||
| 20260904133532 | 0 | 0.0 | 0.0 | 0.00 | 0.00 | 0.00 | 1011.2 | ||
| 20260904133046 | 0 | 0.0 | 0.0 | 0.00 | 0.00 | 0.00 | 1011.2 | ||
| 20260904132530 | 0 | 0.0 | 0.0 | 0.00 | 0.00 | 0.00 | 1011.1 | ||
| 20260904132029 | 0 | 0.0 | 0.0 | 0.00 | 0.00 | 0.00 | 1011.1 | ||
| 20260904131527 | 0 | 0.0 | 0.0 | 0.00 | 0.00 | 0.00 | 1011.0 | ||
| 20260904131010 | 0 | 0.0 | 0.0 | 0.00 | 0.00 | 0.00 | 1011.0 | ||
| 20260904130507 | 0 | 0.0 | 0.0 | 0.00 | 0.00 | 0.00 | 1011.0 | ||
| 20260904130005 | 0 | 0.0 | 0.0 | 0.00 | 0.00 | 0.00 | 1011.0 | ||
| 20260904125504 | 0 | 0.0 | 0.0 | 0.00 | 0.00 | 0.00 | 1010.9 | ||
| 20260904125003 | 0 | 0.0 | 0.0 | 0.00 | 0.00 | 0.00 | 1010.8 | ||
| 20260904124502 | 0 | 0.0 | 0.0 | 0.00 | 0.00 | 0.00 | 1010.8 | ||
| 20260904124059 | 0 | 0.0 | 0.0 | 0.00 | 0.00 | 0.00 | 1010.7 | ||
| 20260904123549 | 0 | 0.0 | 0.0 | 0.00 | 0.00 | 0.00 | 1010.6 | ||
| 20260904123047 | 0 | 0.0 | 0.0 | 0.00 | 0.00 | 0.00 | 1010.6 | ||
| 20260904122545 | 0 | 0.0 | 0.0 | 0.00 | 0.00 | 0.00 | 1010.6 | ||
| 20260904122043 | 0 | 0.0 | 0.0 | 0.00 | 0.00 | 0.00 | 1010.5 | ||
| 20260904121543 | 0 | 0.0 | 0.0 | 0.00 | 0.00 | 0.00 | 1010.5 | ||
| 20260904121041 | 0 | 0.0 | 0.0 | 0.00 | 0.00 | 0.00 | 1010.5 | ||
| 20260904120541 | 0 | 0.0 | 0.0 | 0.00 | 0.00 | 0.00 | 1010.5 | ||
| 20260904120053 | 0 | 0.0 | 0.0 | 0.00 | 0.00 | 0.00 | 1010.5 | ||
| 20260904115538 | 0 | 0.0 | 0.0 | 0.00 | 0.00 | 0.00 | 1010.5 | ||
| 20260904115038 | 0 | 0.0 | 0.0 | 0.00 | 0.00 | 0.00 | 1010.4 | ||
| 20260904114538 | 0 | 0.0 | 0.0 | 0.00 | 0.00 | 0.00 | 1010.3 | ||
| 20260904114038 | 0 | 0.0 | 0.0 | 0.00 | 0.00 | 0.00 | 1010.3 | ||
| 20260904113536 | 0 | 0.0 | 0.0 | 0.00 | 0.00 | 0.00 | 1010.4 | ||
| 20260904113037 | 0 | 0.0 | 0.0 | 0.00 | 0.00 | 0.00 | 1010.5 | ||
| 20260904112533 | 0 | 0.0 | 0.0 | 0.00 | 0.00 | 0.00 | 1010.4 | ||
| 20260904112032 | 0 | 0.0 | 0.0 | 0.00 | 0.00 | 0.00 | 1010.4 | ||
| 20260904111529 | 0 | 0.0 | 0.0 | 0.00 | 0.00 | 0.00 | 1010.3 | ||
| 20260904111029 | 0 | 0.0 | 0.0 | 0.00 | 0.00 | 0.00 | 1010.2 | ||
| 20260904110526 | 0 | 0.0 | 0.0 | 0.00 | 0.00 | 0.00 | 1010.2 | ||
| 20260904110027 | 0 | 0.0 | 0.0 | 0.00 | 0.00 | 0.00 | 1010.2 | ||
| 20260904105526 | 0 | 0.0 | 0.0 | 0.00 | 0.00 | 0.00 | 1010.1 | ||
| 20260904105028 | 0 | 0.0 | 0.0 | 0.00 | 0.00 | 0.00 | 1010.1 | ||
| 20260904104526 | 0 | 0.0 | 0.0 | 0.00 | 0.00 | 0.00 | 1010.1 | ||
| 20260904104025 | 0 | 0.0 | 0.0 | 0.00 | 0.00 | 0.00 | 1010.0 | ||
| 20260904103602 | 0 | 0.0 | 0.0 | 0.00 | 0.00 | 0.00 | 1010.0 | ||
| 20260904103101 | 0 | 0.0 | 0.0 | 0.00 | 0.00 | 0.00 | 1009.9 | ||
| 20260904102558 | 0 | 0.0 | 0.0 | 0.00 | 0.00 | 0.00 | 1009.9 | ||
| 20260904102055 | 0 | 0.0 | 0.0 | 0.00 | 0.00 | 0.00 | 1009.9 | ||
| 20260904101555 | 0 | 0.0 | 0.0 | 0.00 | 0.00 | 0.00 | 1009.9 | ||
| 20260904101053 | 0 | 0.0 | 0.0 | 0.00 | 0.00 | 0.00 | 1009.9 | ||
| 20260904100539 | 0 | 0.0 | 0.0 | 0.00 | 0.00 | 0.00 | 1009.9 | ||
| 20260904100047 | 0 | 0.0 | 0.0 | 0.00 | 0.00 | 0.00 | 1009.9 | ||
| 20260904095537 | 0 | 0.0 | 0.0 | 0.00 | 0.00 | 0.00 | 1010.0 | ||
| 20260904095037 | 0 | 0.0 | 0.0 | 0.00 | 0.00 | 0.00 | 1010.0 | ||
| 20260904094548 | 0 | 0.0 | 0.0 | 0.00 | 0.00 | 0.00 | 1010.0 | ||
| 20260904094032 | 0 | 0.0 | 0.0 | 0.00 | 0.00 | 0.00 | 1010.0 | ||
| 20260904093531 | 0 | 0.0 | 0.0 | 0.00 | 0.00 | 0.00 | 1010.0 | ||
| 20260904093029 | 0 | 0.0 | 0.0 | 0.00 | 0.00 | 0.00 | 1010.0 | ||
| 20260904092530 | 0 | 0.0 | 0.0 | 0.00 | 0.00 | 0.00 | 1010.0 | ||
| 20260904092029 | 0 | 0.0 | 0.0 | 0.00 | 0.00 | 0.00 | 1010.1 | ||
| 20260904091526 | 0 | 0.0 | 0.0 | 0.00 | 0.00 | 0.00 | 1010.1 | ||
| 20260904091025 | 0 | 0.0 | 0.0 | 0.00 | 0.00 | 0.00 | 1010.2 | ||
| 20260904090528 | 0 | 0.0 | 0.0 | 0.00 | 0.00 | 0.00 | 1010.1 | ||
| 20260904090021 | 0 | 0.0 | 0.0 | 0.00 | 0.00 | 0.00 | 1010.2 | ||
| 20260904085519 | 0 | 0.0 | 0.0 | 0.00 | 0.00 | 0.00 | 1010.2 | ||
| 20260904085022 | 0 | 0.0 | 0.0 | 0.00 | 0.00 | 0.00 | 1010.3 | ||
| 20260904084517 | 0 | 0.0 | 0.0 | 0.00 | 0.00 | 0.00 | 1010.2 | ||
| 20260904084015 | 0 | 0.0 | 0.0 | 0.00 | 0.00 | 0.00 | 1010.3 | ||
| 20260904083514 | 0 | 0.0 | 0.0 | 0.00 | 0.00 | 0.00 | 1010.3 | ||
| 20260904083012 | 0 | 0.0 | 0.0 | 0.00 | 0.00 | 0.00 | 1010.2 | ||
| 20260904082511 | 0 | 0.0 | 0.0 | 0.00 | 0.00 | 0.00 | 1010.2 | ||
| 20260904082009 | 0 | 0.0 | 0.0 | 0.00 | 0.00 | 0.00 | 1010.1 | ||
| 20260904081508 | 0 | 0.0 | 0.0 | 0.00 | 0.00 | 0.00 | 1010.2 | ||
| 20260904081006 | 0 | 0.0 | 0.0 | 0.00 | 0.00 | 0.00 | 1010.2 | ||
| 20260904080548 | 0 | 0.0 | 0.0 | 0.00 | 0.00 | 0.00 | 1010.1 | ||
| 20260904080047 | 0 | 0.0 | 0.0 | 0.00 | 0.00 | 0.00 | 1010.0 | ||
| 20260904075547 | 0 | 0.0 | 0.0 | 0.00 | 0.00 | 0.00 | 1010.0 | ||
| 20260904075046 | 0 | 0.0 | 0.0 | 0.00 | 0.00 | 0.00 | 1010.0 | ||
| 20260904074543 | 0 | 0.0 | 0.0 | 0.00 | 0.00 | 0.00 | 1010.0 | ||
| 20260904074041 | 0 | 0.0 | 0.0 | 0.00 | 0.00 | 0.00 | 1009.9 | ||
| 20260904073528 | 0 | 0.0 | 0.0 | 0.00 | 0.00 | 0.00 | 1009.9 | ||
| 20260904073033 | 0 | 0.0 | 0.0 | 0.00 | 0.00 | 0.00 | 1009.8 | ||
| 20260904072525 | 0 | 0.0 | 0.0 | 0.00 | 0.00 | 0.00 | 1009.9 | ||
| 20260904072024 | 0 | 0.0 | 0.0 | 0.00 | 0.00 | 0.00 | 1009.8 | ||
| 20260904071522 | 0 | 0.0 | 0.0 | 0.00 | 0.00 | 0.00 | 1009.8 | ||
| 20260904071021 | 0 | 0.0 | 0.0 | 0.00 | 0.00 | 0.00 | 1009.7 | ||
| 20260904070518 | 0 | 0.0 | 0.0 | 0.00 | 0.00 | 0.00 | 1009.6 | ||
| 20260904070035 | 0 | 0.0 | 0.0 | 0.00 | 0.00 | 0.00 | 1009.6 | ||
| 20260904065520 | 0 | 0.0 | 0.0 | 0.00 | 0.00 | 0.00 | 1009.7 | ||
| 20260904065016 | 52 | 26 | 0.0 | 0.0 | 0.00 | 0.00 | 0.00 | 1 | 1009.6 |
| 20260904064514 | 52 | 26 | 0.0 | 0.0 | 0.00 | 0.00 | 0.00 | 1 | 1009.6 |
| 20260904064012 | 52 | 26 | 0.0 | 0.0 | 0.00 | 0.00 | 0.00 | 1 | 1009.6 |
| 20260904063510 | 53 | 26 | 0.0 | 0.0 | 0.00 | 0.00 | 0.00 | 1 | 1009.7 |
| 20260904063009 | 53 | 26 | 0.0 | 0.0 | 0.00 | 0.00 | 0.00 | 1 | 1009.7 |
| 20260904062507 | 53 | 25 | 0.0 | 0.0 | 0.00 | 0.00 | 0.00 | 1 | 1009.7 |
| 20260904062006 | 53 | 25 | 0.0 | 0.0 | 0.00 | 0.00 | 0.00 | 1 | 1009.7 |